Regional Weather Roundup
Issued by NWS

Home | Current Version | Previous Version | Text Only | Print | Product List | Glossary Off
Versions: 1 2 3 4 5 6 7 8 9 10 11 12 13 14 15 16 17 18 19 20 21 22 23 24 25 26 27

000
ASUS45 KCYS 222110
RWRWY

WYOMING REGIONAL WEATHER ROUNDUP
NATIONAL WEATHER SERVICE CHEYENNE WY
200 PM MST WED FEB 22 2017

NOTE:  "FAIR" INDICATES FEW OR NO CLOUDS BELOW 12,000 FEET
WITH NO SIGNIFICANT WEATHER AND/OR OBSTRUCTIONS TO VISIBILITY.

WYZ001-222200-
YELLOWSTONE NATIONAL PARK

CITY           SKY/WX    TMP DP  RH WIND       PRES   REMARKS
LK YELLOWSTONE   N/A     24  17  74 VRB5      29.83F WCI  18
W YELLOWSTONE  NOT AVBL

$$
WYZ002>013-054>058-071-098>099-222200-
NORTHERN WYOMING

CITY           SKY/WX    TMP DP  RH WIND       PRES   REMARKS
JACKSON        CLOUDY    30  18  59 SE5       29.85F WCI  25
CODY           PTSUNNY   39  21  48 N10       29.83F WCI  32
GREYBULL       FAIR      45  25  45 NW13      29.81F
WORLAND        FAIR      46  21  37 NE7       29.81F
SHERIDAN       CLOUDY    40  29  64 E8        29.84F WCI  34
BUFFALO        FLURRIES  36  28  73 N16G26    29.82F WCI  26
GILLETTE         N/A    N/A N/A N/A MISG      29.80F
HULETT         CLOUDY    41  30  65 N9        29.82F
NEWCASTLE      FAIR      45  21  39 NW14G22   29.78F

$$
WYZ014>020-022>026-101>103-222200-
CENTRAL WYOMING

CITY           SKY/WX    TMP DP  RH WIND       PRES   REMARKS
BIG PINEY      PTSUNNY   28  21  75 E3        29.86F
PINEDALE       CLOUDY    28  18  64 CALM      29.87F
DUBOIS         MOCLDY    32  12  43 W15       29.80F WCI  22
LANDER         FAIR      40  23  50 E15       29.78F WCI  32
RIVERTON       FAIR      41  10  28 NW9       29.80F
CASPER         CLOUDY    41  14  33 W8        29.82F
DOUGLAS        FAIR      46  15  28 W18G25    29.81F

$$
WYZ021-027>030-104>119-222200-
SOUTHERN WYOMING

CITY           SKY/WX    TMP DP  RH WIND       PRES   REMARKS
EVANSTON       LGT SNOW  29  24  82 VRB3      29.84
KEMMERER         N/A     32  21  64 CALM      29.85F
FORT BRIDGER   CLOUDY    31  29  90 CALM      29.88F
ROCK SPRINGS   LGT SNOW  30  24  78 NW7       29.86F WCI  23
DIXON            N/A     34  29  83 CALM      29.89F
RAWLINS          N/A     31  24  75 SW10      29.85F WCI  22
SARATOGA       CLOUDY    32  27  80 SW7       29.85F WCI  26
LARAMIE        CLOUDY    32  24  72 NE8       29.83F WCI  25
CHEYENNE       CLOUDY    44  20  38 NW20      29.80F
TORRINGTON     FAIR      54  16  22 NW10      29.79F
PINE BLUFFS    CLOUDY    46  14  27 N17G24    29.81F

$$




USA.gov is the U.S. government's official web portal to all federal, state and local government web resources and services.